TimeMDT,TemperatureF,Dew PointF,Humidity,Sea Level PressureIn,VisibilityMPH,Wind Direction,Wind SpeedMPH,Gust SpeedMPH,PrecipitationIn,Events,Conditions,WindDirDegrees,DateUTC
12:48 AM,21.9,16.0,78,30.36,-9999.0,NNW,6.9,-,N/A,,Unknown,340,2013-03-12 06:48:00
1:48 AM,19.9,15.1,81,30.39,-9999.0,North,5.8,-,N/A,,Unknown,350,2013-03-12 07:48:00
2:48 AM,18.0,14.0,84,30.42,-9999.0,Calm,Calm,-,N/A,,Unknown,0,2013-03-12 08:48:00
3:48 AM,19.0,14.0,81,30.42,-9999.0,North,8.1,-,N/A,,Unknown,350,2013-03-12 09:48:00
4:48 AM,17.1,12.9,84,30.41,-9999.0,NW,5.8,-,N/A,,Unknown,320,2013-03-12 10:48:00
5:48 AM,14.0,10.9,88,30.43,-9999.0,Calm,Calm,-,N/A,,Unknown,0,2013-03-12 11:48:00
6:48 AM,14.0,10.0,84,30.42,-9999.0,Calm,Calm,-,N/A,,Unknown,0,2013-03-12 12:48:00
7:48 AM,14.0,10.0,84,30.43,-9999.0,Calm,Calm,-,N/A,,Unknown,0,2013-03-12 13:48:00
8:48 AM,19.0,15.1,85,30.42,-9999.0,Calm,Calm,-,N/A,,Unknown,0,2013-03-12 14:48:00
9:48 AM,24.1,12.9,62,30.41,-9999.0,SSE,4.6,-,N/A,,Unknown,150,2013-03-12 15:48:00
10:48 AM,28.0,14.0,56,30.38,-9999.0,SE,5.8,-,N/A,,Unknown,130,2013-03-12 16:48:00
11:48 AM,32.0,14.0,48,30.36,-9999.0,South,8.1,-,N/A,,Unknown,170,2013-03-12 17:48:00
12:48 PM,36.0,15.1,43,30.33,-9999.0,SSE,9.2,-,N/A,,Unknown,160,2013-03-12 18:48:00
1:48 PM,37.9,17.1,43,30.30,-9999.0,South,13.8,-,N/A,,Unknown,170,2013-03-12 19:48:00
2:48 PM,41.0,18.0,40,30.25,-9999.0,South,13.8,-,N/A,,Unknown,190,2013-03-12 20:48:00
3:48 PM,41.0,19.0,41,30.22,-9999.0,South,10.4,18.4,N/A,,Unknown,190,2013-03-12 21:48:00
4:48 PM,42.1,19.9,41,30.20,-9999.0,South,13.8,20.7,N/A,,Unknown,170,2013-03-12 22:48:00
5:48 PM,39.9,19.0,43,30.19,-9999.0,SSE,17.3,-,N/A,,Unknown,150,2013-03-12 23:48:00
6:48 PM,37.9,19.9,48,30.17,-9999.0,SE,9.2,-,N/A,,Unknown,140,2013-03-13 00:48:00
7:48 PM,37.0,21.0,52,30.15,-9999.0,SSE,9.2,-,N/A,,Unknown,160,2013-03-13 01:48:00
8:48 PM,37.0,19.9,50,30.13,-9999.0,SSE,11.5,20.7,N/A,,Unknown,160,2013-03-13 02:48:00
9:48 PM,37.0,19.0,48,30.11,-9999.0,South,12.7,-,N/A,,Unknown,170,2013-03-13 03:48:00
10:48 PM,37.0,19.9,50,30.09,-9999.0,SSE,6.9,-,N/A,,Unknown,150,2013-03-13 04:48:00
11:48 PM,36.0,19.9,52,30.07,-9999.0,SSE,8.1,-,N/A,,Unknown,160,2013-03-13 05:48:00